Location: Newark
(43.6583°N, 1.6617°E)
Time: 23:28:05
(UTC+00:00)

Tiros 1 - Pass Details

Date: 27 August 2019
Orbit: 630 x 664 km, 48.4° (Epoch: 22 September)

Event Time Altitude Azimuth Distance (km) Brightness Sun altitude
Rises 01:25:21 0° 284° (WNW) 2,920 - -32.4°
Reaches altitude 10° 01:27:45 10° 291° (WNW) 2,014 - -32.2°
Maximum altitude 01:32:14 47° 6° (N) 838 - -31.8°
Exits shadow 01:34:19 28° 64° (ENE) 1,201 8.9 -31.6°
Drops below altitude 10° 01:36:44 10° 81° (E) 2,028 10.1 -31.4°
Sets 01:39:09 0° 87° (E) 2,942 11.0 -31.2°
